Fortuna, CA

8:55 AM PDT on September 25, 2017 (GMT -0700)
Rohnerville

Weather History for KFOT - April, 2013

Change the Weather History Date:

Sunday, April 21, 2013

  Actual Average (KEKA) Record (KEKA)
Temperature  
Mean Temperature 52 °F -  
Max Temperature 60 °F 56 °F 79 °F (1982)
Min Temperature 44 °F 44 °F 35 °F (1971)
Degree Days  
Heating Degree Days 13    
Growing Degree Days 2 (Base 50)    
Moisture  
Dew Point 48 °F    
Average Humidity 93    
Maximum Humidity 100    
Minimum Humidity 63    
Precipitation  
Precipitation 0.00 in - - ()
Sea Level Pressure  
Sea Level Pressure 30.21 in    
Wind  
Wind Speed 9 mph (NW)    
Max Wind Speed 22 mph    
Max Gust Speed 32 mph    
Visibility 8 miles    
Events      
Averages and records for this station are not official NWS values.
T = Trace of Precipitation, MM = Missing Value Source: NWS Daily Summary

Daily Weather History Graph

Daily Weather History Graph

Search for Another Location

Airport or City:

Trip Planner

Search our weather history database for the weather conditions in past years. The results will help you decide how hot, cold, wet, or windy it might be!

Date:

Astronomy

Apr. 21, 2013 Rise Set
Actual Time 6:28 AM PDT 8:02 PM PDT
Civil Twilight 5:59 AM PDT 8:31 PM PDT
Nautical Twilight 5:25 AM PDT 9:06 PM PDT
Astronomical Twilight 4:48 AM PDT 9:43 PM PDT
Moon 3:52 PM PDT (4/21) 3:54 AM PDT (4/21)
Length of Visible Light 14h 31m
Length of Day
13h 33m
Waxing Gibbous, 81% of the Moon is Illuminated
Apr 21
Waxing Gibbous
Apr 25
Full
May 2
Last Quarter
May 9
New
May 17
First Quarter

Hourly Weather History & Observations

Time (PDT) Temp. Windchill Dew Point Humidity Pressure Visibility Wind Dir Wind Speed Gust Speed Precip Events Conditions
12:15 AM 48.2 °F - 48.2 °F 100% 30.25 in 10.0 mi NNW 11.5 mph - N/A   Overcast
12:35 AM 46.4 °F 41.9 °F 46.4 °F 100% 30.25 in 10.0 mi NNW 9.2 mph - N/A   Overcast
12:55 AM 46.4 °F 42.9 °F 46.4 °F 100% 30.25 in 10.0 mi NNW 6.9 mph - N/A   Overcast
1:15 AM 46.4 °F 42.9 °F 46.4 °F 100% 30.25 in 10.0 mi NNW 6.9 mph - N/A   Overcast
1:35 AM 46.4 °F 42.9 °F 46.4 °F 100% 30.24 in 10.0 mi NNW 6.9 mph - N/A   Overcast
1:55 AM 46.4 °F 43.5 °F 46.4 °F 100% 30.23 in 10.0 mi NW 5.8 mph - N/A   Overcast
2:15 AM 46.4 °F 44.3 °F 46.4 °F 100% 30.23 in 10.0 mi North 4.6 mph - N/A   Overcast
2:35 AM 46.4 °F 44.3 °F 46.4 °F 100% 30.22 in 10.0 mi NW 4.6 mph - N/A   Overcast
2:55 AM 46.4 °F 43.5 °F 46.4 °F 100% 30.21 in 10.0 mi NW 5.8 mph - N/A   Overcast
3:15 AM 46.4 °F 43.5 °F 46.4 °F 100% 30.21 in 10.0 mi WNW 5.8 mph - N/A   Overcast
3:35 AM 46.4 °F 42.4 °F 46.4 °F 100% 30.21 in 10.0 mi NW 8.1 mph - N/A   Overcast
3:55 AM 46.4 °F 42.9 °F 46.4 °F 100% 30.21 in 8.0 mi WNW 6.9 mph - N/A   Overcast
4:15 AM 46.4 °F 43.5 °F 46.4 °F 100% 30.20 in 4.0 mi WNW 5.8 mph - N/A   Overcast
4:35 AM 46.4 °F 44.3 °F 46.4 °F 100% 30.20 in 4.0 mi West 4.6 mph - N/A   Overcast
4:55 AM 46.4 °F 45.2 °F 46.4 °F 100% 30.20 in 3.0 mi West 3.5 mph - N/A   Overcast
5:15 AM 44.6 °F 43.1 °F 44.6 °F 100% 30.20 in 2.0 mi WNW 3.5 mph - N/A   Overcast
5:35 AM 46.4 °F 43.5 °F 46.4 °F 100% 30.20 in 1.2 mi West 5.8 mph - N/A   Overcast
5:55 AM 44.6 °F 42.2 °F 44.6 °F 100% 30.20 in 0.8 mi West 4.6 mph - N/A   Overcast
6:15 AM 44.6 °F 42.2 °F 44.6 °F 100% 30.20 in 0.2 mi WNW 4.6 mph - N/A   Overcast
6:35 AM 44.6 °F - 44.6 °F 100% 30.20 in 0.5 mi Calm Calm - N/A   Overcast
6:55 AM 46.4 °F 42.9 °F 46.4 °F 100% 30.21 in 0.5 mi WNW 6.9 mph - N/A   Overcast
7:15 AM 46.4 °F 42.9 °F 46.4 °F 100% 30.21 in 0.2 mi WNW 6.9 mph - N/A   Overcast
7:35 AM 46.4 °F 42.9 °F 46.4 °F 100% 30.21 in 0.2 mi NW 6.9 mph - N/A   Overcast
7:55 AM 46.4 °F 42.9 °F 46.4 °F 100% 30.22 in 0.2 mi NW 6.9 mph - N/A   Overcast
8:15 AM 46.4 °F 45.2 °F 46.4 °F 100% 30.22 in 0.2 mi WNW 3.5 mph - N/A   Overcast
8:35 AM 46.4 °F 43.5 °F 46.4 °F 100% 30.22 in 1.2 mi West 5.8 mph - N/A   Overcast
8:55 AM 46.4 °F 45.2 °F 46.4 °F 100% 30.21 in 3.0 mi West 3.5 mph - N/A   Overcast
9:15 AM 46.4 °F - 46.4 °F 100% 30.22 in 5.0 mi Calm Calm - N/A   Overcast
9:35 AM 46.4 °F 45.2 °F 46.4 °F 100% 30.22 in 10.0 mi NW 3.5 mph - N/A   Overcast
9:55 AM 48.2 °F - 48.2 °F 100% 30.22 in 10.0 mi West 3.5 mph - N/A   Overcast
10:15 AM 48.2 °F - 48.2 °F 100% 30.22 in 10.0 mi West 6.9 mph - N/A   Overcast
10:35 AM 50.0 °F - 50.0 °F 100% 30.21 in 10.0 mi WNW 4.6 mph - N/A   Overcast
10:55 AM 50.0 °F - 50.0 °F 100% 30.21 in 10.0 mi WNW 8.1 mph - N/A   Overcast
11:15 AM 50.0 °F - 50.0 °F 100% 30.22 in 10.0 mi West 10.4 mph - N/A   Mostly Cloudy
11:35 AM 51.8 °F - 51.8 °F 100% 30.22 in 10.0 mi WNW 12.7 mph - N/A   Mostly Cloudy
11:55 AM 53.6 °F - 53.6 °F 100% 30.22 in 10.0 mi WNW 15.0 mph 19.6 mph N/A   Scattered Clouds
12:15 PM 53.6 °F - 53.6 °F 100% 30.22 in 10.0 mi NW 15.0 mph 19.6 mph N/A   Scattered Clouds
12:35 PM 53.6 °F - 53.6 °F 100% 30.22 in 10.0 mi WNW 17.3 mph 21.9 mph N/A   Clear
12:55 PM 53.6 °F - 51.8 °F 94% 30.21 in 10.0 mi WNW 16.1 mph 19.6 mph N/A   Clear
1:15 PM 53.6 °F - 50.0 °F 88% 30.21 in 10.0 mi WNW 17.3 mph 23.0 mph N/A   Clear
1:35 PM 53.6 °F - 51.8 °F 94% 30.20 in 10.0 mi WNW 17.3 mph - N/A   Clear
1:55 PM 53.6 °F - 50.0 °F 88% 30.20 in 10.0 mi WNW 18.4 mph - N/A   Clear
2:15 PM 55.4 °F - 50.0 °F 82% 30.20 in 10.0 mi West 16.1 mph 25.3 mph N/A   Clear
2:35 PM 55.4 °F - 50.0 °F 82% 30.20 in 10.0 mi WNW 19.6 mph - N/A   Clear
2:55 PM 57.2 °F - 50.0 °F 77% 30.19 in 10.0 mi WNW 16.1 mph 23.0 mph N/A   Clear
3:35 PM 59.0 °F - 48.2 °F 67% 30.18 in 10.0 mi NW 17.3 mph - N/A   Clear
3:55 PM 59.0 °F - 48.2 °F 67% 30.18 in 10.0 mi NW 17.3 mph 24.2 mph N/A   Clear
4:15 PM 60.8 °F - 48.2 °F 63% 30.18 in 10.0 mi NW 16.1 mph 25.3 mph N/A   Clear
4:35 PM 60.8 °F - 48.2 °F 63% 30.18 in 9.0 mi NW 17.3 mph 29.9 mph N/A   Clear
4:55 PM 59.0 °F - 48.2 °F 67% 30.18 in 10.0 mi NW 20.7 mph 27.6 mph N/A   Clear
5:15 PM 60.8 °F - 48.2 °F 63% 30.18 in 10.0 mi NW 21.9 mph 32.2 mph N/A   Clear
5:35 PM 59.0 °F - 48.2 °F 67% 30.19 in 10.0 mi NNW 20.7 mph 29.9 mph N/A   Clear
5:55 PM 59.0 °F - 48.2 °F 67% 30.19 in 10.0 mi NNW 18.4 mph 26.5 mph N/A   Clear
6:15 PM 57.2 °F - 48.2 °F 72% 30.19 in 10.0 mi NNW 18.4 mph 31.1 mph N/A   Clear
6:35 PM 57.2 °F - 48.2 °F 72% 30.19 in 10.0 mi NW 21.9 mph 32.2 mph N/A   Clear
6:55 PM 55.4 °F - 48.2 °F 77% 30.19 in 10.0 mi NW 18.4 mph 26.5 mph N/A   Clear
7:15 PM 55.4 °F - 48.2 °F 77% 30.19 in 10.0 mi NW 17.3 mph 27.6 mph N/A   Clear
7:35 PM 53.6 °F - 48.2 °F 82% 30.19 in 10.0 mi NNW 19.6 mph 28.8 mph N/A   Clear
7:55 PM 53.6 °F - 50.0 °F 88% 30.19 in 10.0 mi NW 18.4 mph 24.2 mph N/A   Clear
8:15 PM 51.8 °F - 50.0 °F 94% 30.19 in 10.0 mi NW 12.7 mph 21.9 mph N/A   Clear
8:35 PM 50.0 °F - 50.0 °F 100% 30.20 in 10.0 mi NW 12.7 mph - N/A   Clear
8:55 PM 50.0 °F - 50.0 °F 100% 30.20 in 10.0 mi NW 10.4 mph - N/A   Partly Cloudy
9:15 PM 50.0 °F - 50.0 °F 100% 30.20 in 10.0 mi NW 9.2 mph 19.6 mph N/A   Mostly Cloudy
9:35 PM 50.0 °F - 50.0 °F 100% 30.20 in 10.0 mi WNW 9.2 mph - N/A   Overcast
9:55 PM 50.0 °F - 50.0 °F 100% 30.21 in 10.0 mi WNW 9.2 mph - N/A   Overcast
10:15 PM 50.0 °F - 50.0 °F 100% 30.20 in 10.0 mi WNW 10.4 mph - N/A   Overcast
10:35 PM 50.0 °F - 50.0 °F 100% 30.20 in 10.0 mi WNW 10.4 mph - N/A   Mostly Cloudy
10:55 PM 50.0 °F - 50.0 °F 100% 30.20 in 10.0 mi WNW 6.9 mph - N/A   Overcast
11:15 PM 50.0 °F - 50.0 °F 100% 30.20 in 10.0 mi WNW 6.9 mph - N/A   Overcast
11:35 PM 50.0 °F - 50.0 °F 100% 30.19 in 10.0 mi WNW 5.8 mph - N/A   Overcast
11:55 PM 50.0 °F - 50.0 °F 100% 30.19 in 10.0 mi NW 6.9 mph - N/A   Overcast